THOR ABLESTAR DEB, 3124

Orbit data source: Space-Track

THOR ABLESTAR DEB, 3124 is space debris in LEO originally from a launch on Thu, 29 Jun 1961 UTC launched from the Air Force Eastern Test Range (AFETR). Debris objects in space refer to the collection of defunct objects orbiting the Earth. Examples of debris include non-operational satellites, rocket bodies, and fragments generated from explosions, collisions, or faulty payload assembly.

Loading next visibility...
Identifier
3124, 1961-015HX
Orbit
LEO
Country
Flag of USUS
Related business
Manufacturer
Unknown
Mission
Spacecraft
Bus & Motor
Unknown
Mass
Unknown
Launch date (UTC)
1961-06-29 (64 years ago)
Launch vehicle
Unknown
Launch site
Air Force Eastern Test Range (AFETR)
Object type
Payload
Rocket body
Debris
Shape & HBR
Unknown shape, 0.1 m
Radar Cross Section
Small (<0.1 m²)

Expand to show TLE details & history
Last TLE update: 13 hours ago

TLE from 13 hours ago
0 THOR ABLESTAR DEB
1 03124U 61015HX  25308.45576320  .00003295  00000-0  33563-2 0  9994
2 03124  66.9875  78.1471 0326244 236.4507 120.5009 13.56859444138647
Epoch: 2025-11-04T10:56Z
TLE epoch observation values (Epoch: 2025-11-04T10:56:17.940Z)
Latitude
0.00002°
Longitude
-129.87017°
Altitude
1,177.869 km
Speed
7.202 km/s
True Right ascension
05h 12m 35s
True Declination
0° 00' 00"
Sunlit
Object was in full shadow at epoch
Visualization orbit readout
Latitude
Unknown
Longitude
Unknown
Altitude
Unknown
Speed
Unknown
Apparent Right ascension
Unknown
Apparent Declination
Unknown
Sunlit
N/A
Visualization observer readout
Local Sidereal Time
19:51:53
Azimuth
Unknown
Elevation
Unknown
Doppler factor
Unknown
Orbital elements
Apogee altitude
1,287.716 km
Perigee altitude
803.331 km
Semi-major axis
7,423.661 km
Eccentricity
0.03262
Inclination
66.9875°
RAAN
78.1471°
Arg. of periapsis
236.4507°
True anomaly
123.65509°
Mean anomaly
120.5009°
Eccentric anomaly
122.08464°
Mean motion
3.39325 °/min
Orbital period
106.09 mins
BSTAR
0.0033563
Loading maneuver chart data...
Computing Atmospheric mass density...

Documentation

Showing up to 5 results
|